Skip Page Navigation
NASA JPL Caltech
NASA Logo - Jet Propulsion Laboratory + View the NASA Portal
+ Center for Near-Earth Object Studies
JPL Home Earth Solar System Stars & Galaxies Technology
JPL Solar System Dynamics
BODIES ORBITS EPHEMERIDES TOOLS PHYSICAL DATA DISCOVERY FAQ SITE MAP
IMPORTANT: The SSD Announcement email list is now available. Major changes are coming in the near future, including possible hostname and/or URL changes. To be notified of such changes, subscribe to this email list.

Please visit this page for more details.


JPL Small-Body Database Browser
Search: [ help ]  
434745 (2006 GF54)
Classification: Main-belt Asteroid          SPK-ID: 2434745
Ephemeris | Orbit Diagram | Orbital Elements | Mission Design | Physical Parameters | Discovery Circumstances ]

[ hide orbit diagram ]

For accurate long-term ephemerides, please instead use our Horizons system.This orbit viewer was implemented using two-body methods, and hence should not be used for determining accurate long-term trajectories (over several years or decades) or planetary encounter circumstances.


[ revert to old Java-based viewer ]

Orbital Elements at Epoch 2458600.5 (2019-Apr-27.0) TDB
Reference: JPL 17 (heliocentric ecliptic J2000)
 Element Value Uncertainty (1-sigma)   Units 
e .04704123002838409 7.2013e-08  
a 2.764620457744156 4.4284e-08 au
q 2.634569310850237 2.1398e-07 au
i 7.609402345955854 7.9282e-06 deg
node 46.78506651734006 6.0184e-05 deg
peri 183.4606068010498 0.00012312 deg
M 287.7408887046698 0.00010885 deg
tp 2458937.509247590260
(2020-Mar-29.00924759)
0.00051168 TDB
period 1679.003892486761
4.60
4.0342e-05
1.105e-07
d
yr
n .2144128441934739 5.1517e-09 deg/d
Q 2.894671604638075 4.6367e-08 au
  Orbit Determination Parameters
   # obs. used (total)      96  
   data-arc span      4715 days (12.91 yr)  
   first obs. used      2006-04-08  
   last obs. used      2019-03-06  
   planetary ephem.      DE431  
   SB-pert. ephem.      SB431-N16  
   condition code      0  
   norm. resid. RMS      .649  
   source      ORB  
   producer      Otto Matic  
   solution date      2019-Jul-14 08:07:55  

Additional Information
 Earth MOID = 1.62408 au 
 Jupiter MOID = 2.08077 au 
 T_jup = 3.326 
[ show covariance matrix ]

Ephemeris | Orbit Diagram | Orbital Elements | Mission Design | Physical Parameters | Discovery Circumstances ]

Physical Parameter Table
Parameter Symbol Value Units Sigma Reference Notes
absolute magnitude H 16.9   n/a MPO434586  

434745 (2006 GF54)          Discovered 2006-Apr-08 by Spacewatch at Kitt Peak
Reference: Last Updated: 2015-06-04
Ephemeris | Orbit Diagram | Orbital Elements | Mission Design | Physical Parameters | Discovery Circumstances ]
ABOUT SSD CREDITS/AWARDS PRIVACY/COPYRIGHT GLOSSARY LINKS
FirstGov 2019-Dec-11 22:59 UT
(server date/time)  
NASA Home Page
Site Manager:   Ryan S. Park
Webmaster  Alan B. Chamberlin